カタログに戻る

DELTA 1 DEB

運用中UNKNOWN
NORAD 15540·DEBRIS·🇺🇸 United States

打ち上げ Jul 29, 1976 から Vandenberg Space Force Base

Loading…

次のパス (今後24時間)

TLE

最新Source: Space-Track

元期: Sep 14, 2026, 18:41 UTC

1 15540U 76077EU  26257.77879948 -.00000118  00000-0 -92807-3 0  9994
2 15540 102.7152 199.4367 0561583 252.9821 129.4588 11.68257855509516

AllMySatでDELTA 1 DEBをリアルタイム追跡

Download on the App Store